When you browse on this site, cookies collect data to enhance your experience and personalize the content and advertising you see.
Visit our Privacy Policy to learn more. By continuing to use the site, you agree to this use of cookies and data.
  • In Czech Republic
  • List of Countries
  • For 7 days
  • Water Temperature
  • Satellite Maps
  • Weather Map
  • Weather Widgets
  • user-avatar
    Login

    Hourly Weather Stepanakert

    Today, 23 May, Thursday

    Time Temperature Precipitation Wind Pressure Humidity
    00:00 +15°C° 0.1 mm 1 mps 692 mmHg 84%
    01:00 +15°C° 0 mm 1 mps 692 mmHg 83%
    02:00 +15°C° 0 mm 1 mps 692 mmHg 82%
    03:00 +14°C° 0 mm 1 mps 692 mmHg 82%
    04:00 +15°C° 0 mm 1 mps 692 mmHg 80%
    05:00 +16°C° 0 mm 1 mps 692 mmHg 79%
    06:00 +16°C° 0 mm 1 mps 692 mmHg 77%
    07:00 +19°C° 0 mm 1 mps 692 mmHg 71%
    08:00 +20°C° 0 mm 2 mps 692 mmHg 66%
    09:00 +23°C° 0 mm 2 mps 692 mmHg 60%
    10:00 +23°C° 0 mm 2 mps 692 mmHg 59%
    11:00 +24°C° 0 mm 3 mps 692 mmHg 58%
    12:00 +25°C° 0 mm 3 mps 691 mmHg 57%
    13:00 +25°C° 0.3 mm 3 mps 691 mmHg 59%
    14:00 +24°C° 0.3 mm 3 mps 691 mmHg 62%
    15:00 +24°C° 0.3 mm 3 mps 690 mmHg 64%
    16:00 +23°C° 0.4 mm 2 mps 690 mmHg 69%
    17:00 +21°C° 0.4 mm 2 mps 690 mmHg 74%
    18:00 +20°C° 0.4 mm 2 mps 690 mmHg 79%
    19:00 +20°C° 0.7 mm 1 mps 690 mmHg 82%
    20:00 +19°C° 0.7 mm 1 mps 690 mmHg 86%
    21:00 +18°C° 0.7 mm 1 mps 691 mmHg 89%
    22:00 +16°C° 0.2 mm 1 mps 691 mmHg 89%
    23:00 +16°C° 0.2 mm 1 mps 691 mmHg 88%

    Tomorrow, 24 May, Friday

    Time Temperature Precipitation Wind Pressure Humidity
    00:00 +16°C° 0.2 mm 1 mps 691 mmHg 87%
    01:00 +16°C° 0 mm 1 mps 691 mmHg 88%
    02:00 +15°C° 0 mm 1 mps 691 mmHg 89%
    03:00 +15°C° 0 mm 1 mps 691 mmHg 89%
    04:00 +16°C° 0 mm 1 mps 691 mmHg 87%
    05:00 +16°C° 0 mm 1 mps 692 mmHg 84%
    06:00 +18°C° 0 mm 1 mps 692 mmHg 81%
    07:00 +19°C° 0 mm 1 mps 692 mmHg 76%
    08:00 +20°C° 0 mm 2 mps 692 mmHg 72%
    09:00 +21°C° 0 mm 2 mps 693 mmHg 67%
    10:00 +23°C° 0 mm 2 mps 692 mmHg 64%
    11:00 +24°C° 0 mm 3 mps 692 mmHg 61%
    12:00 +25°C° 0 mm 3 mps 692 mmHg 58%
    13:00 +25°C° 0.1 mm 3 mps 692 mmHg 59%
    14:00 +25°C° 0.1 mm 3 mps 692 mmHg 60%
    15:00 +25°C° 0.1 mm 2 mps 691 mmHg 61%
    16:00 +24°C° 0.1 mm 2 mps 691 mmHg 66%
    17:00 +23°C° 0.1 mm 2 mps 691 mmHg 71%
    18:00 +23°C° 0.1 mm 1 mps 691 mmHg 76%
    19:00 +21°C° 0.4 mm 1 mps 692 mmHg 80%
    20:00 +20°C° 0.4 mm 1 mps 692 mmHg 84%
    21:00 +18°C° 0.4 mm 1 mps 693 mmHg 88%
    22:00 +18°C° 0.1 mm 1 mps 693 mmHg 87%
    23:00 +18°C° 0.1 mm 1 mps 693 mmHg 87%

    Day after tomorrow, 25 May, Saturday

    Time Temperature Precipitation Wind Pressure Humidity
    00:00 +18°C° 0.1 mm 1 mps 693 mmHg 86%
    01:00 +18°C° 0 mm 1 mps 693 mmHg 86%
    02:00 +18°C° 0 mm 1 mps 693 mmHg 86%
    03:00 +16°C° 0 mm 1 mps 693 mmHg 86%
    04:00 +18°C° 0 mm 1 mps 693 mmHg 83%
    05:00 +19°C° 0 mm 1 mps 693 mmHg 79%
    06:00 +19°C° 0 mm 1 mps 693 mmHg 76%
    07:00 +21°C° 0 mm 1 mps 693 mmHg 71%
    08:00 +23°C° 0 mm 2 mps 694 mmHg 67%
    09:00 +25°C° 0 mm 2 mps 694 mmHg 62%
    10:00 +26°C° 0 mm 2 mps 694 mmHg 58%
    11:00 +27°C° 0 mm 2 mps 693 mmHg 54%
    12:00 +29°C° 0 mm 3 mps 693 mmHg 50%
    13:00 +29°C° 0 mm 3 mps 693 mmHg 49%
    14:00 +30°C° 0 mm 3 mps 692 mmHg 49%
    15:00 +30°C° 0 mm 3 mps 692 mmHg 49%
    16:00 +29°C° 0 mm 2 mps 692 mmHg 55%
    17:00 +27°C° 0 mm 2 mps 691 mmHg 62%
    18:00 +26°C° 0 mm 1 mps 691 mmHg 68%
    19:00 +25°C° 0 mm 1 mps 691 mmHg 71%
    20:00 +23°C° 0 mm 1 mps 691 mmHg 74%
    21:00 +21°C° 0 mm 2 mps 691 mmHg 76%
    22:00 +21°C° 0 mm 2 mps 691 mmHg 68%
    23:00 +21°C° 0 mm 2 mps 692 mmHg 60%

    26 May, Sunday

    Time Temperature Precipitation Wind Pressure Humidity
    00:00 +21°C° 0 mm 2 mps 692 mmHg 52%
    01:00 +21°C° 0 mm 2 mps 691 mmHg 52%
    02:00 +20°C° 0 mm 2 mps 691 mmHg 51%
    03:00 +19°C° 0 mm 2 mps 691 mmHg 51%
    04:00 +20°C° 0 mm 2 mps 691 mmHg 52%
    05:00 +20°C° 0 mm 2 mps 691 mmHg 53%
    06:00 +22°C° 0 mm 1 mps 691 mmHg 54%
    07:00 +24°C° 0 mm 2 mps 692 mmHg 50%
    08:00 +26°C° 0 mm 2 mps 692 mmHg 47%
    09:00 +28°C° 0 mm 2 mps 692 mmHg 43%
    10:00 +29°C° 0 mm 3 mps 692 mmHg 42%
    11:00 +30°C° 0 mm 3 mps 692 mmHg 41%
    12:00 +31°C° 0 mm 3 mps 692 mmHg 41%
    13:00 +30°C° 0 mm 3 mps 691 mmHg 43%
    14:00 +30°C° 0 mm 3 mps 691 mmHg 46%
    15:00 +29°C° 0 mm 3 mps 690 mmHg 48%
    16:00 +28°C° 0.1 mm 3 mps 691 mmHg 55%
    17:00 +27°C° 0.1 mm 2 mps 691 mmHg 62%
    18:00 +25°C° 0.1 mm 2 mps 691 mmHg 68%
    19:00 +23°C° 0 mm 2 mps 691 mmHg 75%
    20:00 +22°C° 0 mm 1 mps 691 mmHg 81%
    21:00 +20°C° 0 mm 1 mps 691 mmHg 87%
    22:00 +19°C° 0 mm 1 mps 691 mmHg 88%
    23:00 +19°C° 0 mm 1 mps 691 mmHg 88%

    27 May, Monday

    Time Temperature Precipitation Wind Pressure Humidity
    00:00 +19°C° 0 mm 1 mps 692 mmHg 89%
    01:00 +19°C° 0 mm 1 mps 692 mmHg 87%
    02:00 +18°C° 0 mm 1 mps 692 mmHg 84%
    03:00 +18°C° 0 mm 1 mps 692 mmHg 82%
    04:00 +19°C° 0 mm 1 mps 693 mmHg 79%
    05:00 +20°C° 0 mm 1 mps 693 mmHg 76%
    06:00 +20°C° 0 mm 1 mps 694 mmHg 73%
    07:00 +21°C° 0 mm 2 mps 694 mmHg 68%
    08:00 +23°C° 0 mm 2 mps 694 mmHg 63%
    09:00 +25°C° 0 mm 2 mps 694 mmHg 58%
    10:00 +26°C° 0 mm 3 mps 694 mmHg 57%
    11:00 +26°C° 0 mm 3 mps 694 mmHg 56%
    12:00 +27°C° 0 mm 3 mps 694 mmHg 54%
    13:00 +27°C° 0.5 mm 3 mps 694 mmHg 54%
    14:00 +27°C° 0.5 mm 3 mps 694 mmHg 55%
    15:00 +27°C° 0.5 mm 3 mps 694 mmHg 55%
    16:00 +26°C° 0.2 mm 2 mps 694 mmHg 57%
    17:00 +25°C° 0.2 mm 2 mps 694 mmHg 60%
    18:00 +25°C° 0.2 mm 2 mps 694 mmHg 63%
    19:00 +23°C° 0.2 mm 1 mps 695 mmHg 68%
    20:00 +21°C° 0.2 mm 1 mps 695 mmHg 73%
    21:00 +19°C° 0.2 mm 1 mps 696 mmHg 77%
    22:00 +19°C° 0 mm 1 mps 696 mmHg 78%
    23:00 +19°C° 0 mm 1 mps 696 mmHg 79%

    28 May, Tuesday

    Time Temperature Precipitation Wind Pressure Humidity
    00:00 +18°C° 0 mm 2 mps 696 mmHg 80%
    01:00 +17°C° 0.1 mm 2 mps 696 mmHg 79%
    02:00 +17°C° 0.1 mm 2 mps 696 mmHg 79%
    03:00 +18°C° 0.1 mm 1 mps 696 mmHg 78%
    04:00 +18°C° 0.1 mm 1 mps 697 mmHg 76%
    05:00 +19°C° 0.1 mm 1 mps 697 mmHg 74%
    06:00 +20°C° 0.1 mm 1 mps 698 mmHg 72%
    07:00 +21°C° 0 mm 1 mps 698 mmHg 67%
    08:00 +23°C° 0 mm 2 mps 698 mmHg 62%
    09:00 +24°C° 0 mm 2 mps 698 mmHg 57%
    10:00 +25°C° 0 mm 2 mps 698 mmHg 55%
    11:00 +25°C° 0 mm 3 mps 698 mmHg 53%
    12:00 +26°C° 0 mm 3 mps 698 mmHg 52%
    13:00 +26°C° 0 mm 3 mps 697 mmHg 51%
    14:00 +27°C° 0 mm 3 mps 697 mmHg 50%
    15:00 +27°C° 0 mm 3 mps 697 mmHg 49%
    16:00 +26°C° 0 mm 3 mps 697 mmHg 53%
    17:00 +26°C° 0 mm 2 mps 697 mmHg 56%
    18:00 +25°C° 0 mm 2 mps 696 mmHg 59%
    19:00 +23°C° 0 mm 2 mps 697 mmHg 63%
    20:00 +20°C° 0 mm 2 mps 697 mmHg 67%
    21:00 +20°C° 0 mm 1 mps 697 mmHg 71%
    22:00 +18°C° 0 mm 2 mps 697 mmHg 71%
    23:00 +18°C° 0 mm 2 mps 697 mmHg 71%
    Show more